Hatteras, NC

10:28 PM EDT on September 22, 2019 (GMT -0400)
Mitchell

Weather History for KHSE - August, 2019

Change the Weather History Date:

Sunday, August 18, 2019

  Actual Average Record
Temperature  
Mean Temperature 80 °F 78 °F  
Max Temperature 84 °F 84 °F 93 °F (1988)
Min Temperature 75 °F 73 °F 56 °F (1979)
Degree Days  
Heating Degree Days 0 0  
Month to date heating degree days 0 0  
Since 1 June heating degree days 0 3  
Since 1 July heating degree days 0 0  
Cooling Degree Days 15 13  
Month to date cooling degree days 301 251  
Year to date cooling degree days 1601 1139  
Since 1 June cooling degree days 1219 996  
Growing Degree Days 30 (Base 50)    
Moisture  
Dew Point 76 °F    
Average Humidity 93    
Maximum Humidity 100    
Minimum Humidity 74    
Precipitation  
Precipitation 1.14 in 0.22 in 5.30 in (1991)
Month to date precipitation 7.02 3.79  
Year to date precipitation 38.74 34.05  
Snow  
Snow 0.00 in - - ()
Month to date snowfall 0.0  
Since 1 July snowfall 0.0  
Snow Depth 0.00 in    
Sea Level Pressure  
Sea Level Pressure 30.01 in    
Wind  
Wind Speed 8 mph ()    
Max Wind Speed 21 mph    
Max Gust Speed 31 mph    
Visibility 3.9 miles    
Events Fog , Rain , Thunderstorm    
T = Trace of Precipitation, MM = Missing Value Source: Averaged Metar Reports

Daily Weather History Graph

Daily Weather History Graph

Search for Another Location

Airport or City:

Astronomy

Aug. 18, 2019 Rise Set
Actual Time 6:24 AM EDT 7:47 PM EDT
Civil Twilight 5:57 AM EDT 8:14 PM EDT
Nautical Twilight 5:25 AM EDT 8:46 PM EDT
Astronomical Twilight 4:52 AM EDT 9:19 PM EDT
Moon 9:47 PM EDT (8/18) 9:02 AM EDT (8/18)
Length of Visible Light 14h 17m
Length of Day
13h 23m
Waning Gibbous, 91% of the Moon is Illuminated
Aug 18
Waning Gibbous
Aug 23
Last Quarter
Aug 30
New
Sep 5
First Quarter
Sep 14
Full

Hourly Weather History & Observations

Time (EDT) Temp. Heat Index Dew Point Humidity Pressure Visibility Wind Dir Wind Speed Gust Speed Precip Events Conditions
12:10 AM 79.0 °F - 78.1 °F 97% 30.04 in 5.0 mi WSW 5.8 mph - N/A   Mostly Cloudy
12:30 AM 79.0 °F - 78.1 °F 97% 30.04 in 5.0 mi SW 5.8 mph - N/A   Mostly Cloudy
12:51 AM 79.0 °F - 78.1 °F 97% 30.04 in 4.0 mi SW 4.6 mph - N/A   Mostly Cloudy
1:51 AM 79.0 °F - 77.0 °F 94% 30.02 in 5.0 mi SW 6.9 mph - N/A   Clear
2:51 AM 80.1 °F 85.8 °F 77.0 °F 90% 30.01 in 6.0 mi WSW 9.2 mph - N/A   Partly Cloudy
3:01 AM 79.0 °F - 75.9 °F 90% 30.02 in 1.8 mi WSW 20.7 mph 31.1 mph 0.02 in Rain Heavy Rain
3:09 AM 77.0 °F - 75.0 °F 94% 30.01 in 1.2 mi WSW 8.1 mph 29.9 mph 0.16 in Rain Light Rain
3:12 AM 77.0 °F - 75.0 °F 94% 30.01 in 2.5 mi WSW 5.8 mph 17.3 mph 0.16 in Rain Light Rain
3:19 AM 78.1 °F - 75.9 °F 93% 30.01 in 4.0 mi SW 5.8 mph - 0.16 in   Overcast
3:51 AM 79.0 °F - 77.0 °F 94% 30.01 in 7.0 mi WSW 9.2 mph - 0.17 in   Scattered Clouds
4:51 AM 77.0 °F - 75.0 °F 94% 30.01 in 9.0 mi WSW 6.9 mph - 0.00 in   Mostly Cloudy
5:51 AM 78.1 °F - 73.9 °F 87% 30.01 in 7.0 mi SW 9.2 mph - N/A   Partly Cloudy
6:51 AM 79.0 °F - 75.9 °F 90% 30.00 in 3.0 mi SSW 3.5 mph - N/A   Scattered Clouds
7:09 AM 80.1 °F 85.8 °F 77.0 °F 90% 30.01 in 2.0 mi Calm Calm - N/A Thunderstorm Mostly Cloudy
7:14 AM 80.1 °F 85.8 °F 77.0 °F 90% 30.00 in 1.8 mi ESE 4.6 mph - N/A Thunderstorm Mostly Cloudy
7:30 AM 77.0 °F - 75.0 °F 94% 30.03 in 0.8 mi WSW 15.0 mph 24.2 mph 0.00 in Rain , Thunderstorm Rain
7:38 AM 75.0 °F - 73.9 °F 96% 30.02 in 0.2 mi WSW 8.1 mph 24.2 mph 0.21 in Fog , Rain , Thunderstorm Heavy Thunderstorms and Rain
7:51 AM 75.9 °F - 73.9 °F 94% 30.02 in 0.8 mi SW 15.0 mph 28.8 mph 0.34 in Rain , Thunderstorm Heavy Thunderstorms and Rain
8:00 AM 75.9 °F - 73.9 °F 94% 30.02 in 1.5 mi SW 9.2 mph - 0.07 in Rain , Thunderstorm Rain
8:03 AM 75.9 °F - 73.9 °F 94% 30.02 in 3.0 mi WSW 11.5 mph - 0.07 in Rain , Thunderstorm Light Rain
8:08 AM 77.0 °F - 75.0 °F 94% 30.03 in 2.5 mi West 10.4 mph 18.4 mph 0.07 in Rain , Thunderstorm Light Rain
8:10 AM 75.9 °F - 75.0 °F 97% 30.03 in 1.8 mi West 10.4 mph 18.4 mph 0.08 in Rain , Thunderstorm Heavy Rain
8:13 AM 75.9 °F - 73.9 °F 94% 30.02 in 1.2 mi West 10.4 mph 18.4 mph 0.15 in Rain , Thunderstorm Heavy Rain
8:18 AM 75.0 °F - 73.9 °F 96% 30.02 in 1.5 mi West 8.1 mph - 0.19 in Rain , Thunderstorm Rain
8:22 AM 75.9 °F - 73.9 °F 94% 30.02 in 3.0 mi West 8.1 mph 16.1 mph 0.20 in Rain , Thunderstorm Light Rain
8:28 AM 75.9 °F - 73.9 °F 94% 30.01 in 2.0 mi West 9.2 mph - 0.20 in Rain Heavy Rain
8:33 AM 75.9 °F - 73.9 °F 94% 30.01 in 1.0 mi West 9.2 mph - 0.23 in Rain , Thunderstorm Light Thunderstorms and Rain
8:40 AM 75.9 °F - 75.0 °F 97% 30.01 in 0.8 mi West 6.9 mph - 0.33 in Rain , Thunderstorm Thunderstorms and Rain
8:44 AM 75.9 °F - 75.0 °F 97% 30.01 in 1.5 mi Variable 6.9 mph - 0.34 in Rain , Thunderstorm Thunderstorms and Rain
8:48 AM 75.2 °F - 75.2 °F 100% 30.02 in 2.5 mi WSW 8.1 mph - 0.34 in Rain , Thunderstorm Rain
8:51 AM 75.9 °F - 75.0 °F 97% 30.02 in 2.0 mi WSW 12.7 mph 17.3 mph 0.35 in Rain , Thunderstorm Rain
8:53 AM 75.9 °F - 75.0 °F 97% 30.02 in 1.2 mi WSW 12.7 mph 20.7 mph 0.00 in Rain , Thunderstorm Rain
8:59 AM 77.0 °F - 75.0 °F 94% 30.01 in 0.8 mi SW 11.5 mph 20.7 mph 0.07 in Rain Heavy Rain
9:07 AM 75.9 °F - 75.0 °F 97% 30.00 in 1.2 mi SW 11.5 mph 19.6 mph 0.09 in Rain Rain
9:29 AM 77.0 °F - 75.0 °F 94% 30.01 in 2.0 mi SW 13.8 mph 19.6 mph 0.16 in Rain Rain
9:41 AM 77.0 °F - 75.9 °F 96% 30.01 in 1.5 mi WSW 9.2 mph 19.6 mph 0.18 in Rain Rain
9:51 AM 77.0 °F - 75.9 °F 96% 30.01 in 2.0 mi SSW 11.5 mph - 0.20 in Rain Rain
10:05 AM 77.0 °F - 75.9 °F 96% 30.01 in 3.0 mi SSW 10.4 mph - 0.01 in Rain Light Rain
10:13 AM 78.1 °F - 75.9 °F 93% 30.01 in 3.0 mi SSW 11.5 mph 19.6 mph 0.02 in Rain Light Rain
10:51 AM 78.1 °F - 75.9 °F 93% 30.00 in 4.0 mi SSW 12.7 mph 19.6 mph 0.04 in Rain Light Rain
11:21 AM 79.0 °F - 77.0 °F 94% 30.02 in 4.0 mi SSW 11.5 mph - 0.00 in Rain Light Rain
11:40 AM 79.0 °F - 77.0 °F 94% 30.02 in 4.0 mi SSW 10.4 mph - 0.01 in Rain Light Rain
11:48 AM 78.8 °F - 77.0 °F 94% 30.01 in 4.0 mi SSW 11.5 mph - 0.02 in Rain Light Rain
11:51 AM 79.0 °F - 77.0 °F 94% 30.01 in 4.0 mi South 10.4 mph - 0.02 in Rain Light Rain
12:02 PM 79.0 °F - 78.1 °F 97% 30.02 in 2.0 mi SSW 9.2 mph - 0.02 in Rain Light Rain
12:13 PM 79.0 °F - 78.1 °F 97% 30.02 in 4.0 mi SSW 11.5 mph - 0.02 in Rain Light Rain
12:21 PM 79.0 °F - 77.0 °F 94% 30.02 in 5.0 mi SW 9.2 mph - 0.02 in   Mostly Cloudy
12:51 PM 79.0 °F - 77.0 °F 94% 30.01 in 5.0 mi WSW 9.2 mph - 0.02 in   Mostly Cloudy
12:58 PM 79.0 °F - 77.0 °F 94% 30.01 in 5.0 mi WSW 9.2 mph - N/A   Mostly Cloudy
1:24 PM 80.1 °F 86.4 °F 78.1 °F 94% 30.02 in 4.0 mi WSW 8.1 mph - 0.00 in   Mostly Cloudy
1:35 PM 80.1 °F 85.8 °F 77.0 °F 90% 30.02 in 4.0 mi WSW 8.1 mph - 0.00 in   Mostly Cloudy
1:51 PM 80.1 °F 85.8 °F 77.0 °F 90% 30.02 in 5.0 mi West 6.9 mph - 0.00 in   Overcast
2:51 PM 82.9 °F 91.8 °F 77.0 °F 82% 30.01 in 10.0 mi West 6.9 mph - N/A   Partly Cloudy
3:51 PM 82.9 °F 91.8 °F 77.0 °F 82% 30.01 in 10.0 mi West 5.8 mph - N/A   Clear
4:51 PM 84.9 °F 94.1 °F 75.9 °F 74% 30.00 in 10.0 mi WSW 6.9 mph - N/A   Clear
5:51 PM 82.9 °F 91.8 °F 77.0 °F 82% 29.99 in 9.0 mi SSW 8.1 mph - N/A   Clear
6:51 PM 82.0 °F 90.2 °F 77.0 °F 85% 29.99 in 8.0 mi SW 6.9 mph - N/A   Clear
7:51 PM 80.1 °F 85.8 °F 77.0 °F 90% 29.99 in 6.0 mi SW 5.8 mph - N/A   Clear
8:51 PM 80.1 °F 85.8 °F 77.0 °F 90% 30.01 in 7.0 mi SW 5.8 mph - N/A   Clear
9:51 PM 80.1 °F 86.4 °F 78.1 °F 94% 30.01 in 8.0 mi SW 8.1 mph - N/A   Clear
10:51 PM 79.0 °F - 78.1 °F 97% 30.02 in 7.0 mi WSW 5.8 mph - N/A   Clear
11:51 PM 79.0 °F - 77.0 °F 94% 30.02 in 8.0 mi WSW 8.1 mph - N/A   Clear